LDZA

Zagreb Airport

Airport
ICAO code
LDZA
IATA Code
ZAG
Summary
ICAO Region
EUR
ICAO Territory
Location

Velika Gorica, Zagreb

Serving
Zagreb
Elevation
353 ft
Coordinates
45° 44' 34" N , 16° 4' 8" E
KCC
Metar
LDZA 211100Z VRB04KT 9999 FEW035 27/18 Q1010 NOSIG

Description

International airport serving capital of Croatia.

Climatology

Temperate Marine climate/Oceanic climate (Köppen climate classification Cfb).

Runways

Designator Length Width Surface Rops
5/23 3252 45 ASP Yes/Yes

Airport map

Aerial View

SKYbrary Partners:

Safety knowledge contributed by: